Location: Pagani
(40.7500°N, 14.6167°E)
Time: 11:03:14
(UTC+00:00)

Cosmos 2322 Rocket - Pass Details

Date: 15 May 2026
Orbit: 831 x 850 km, 71.0° (Epoch: 6 June)

Event Time Altitude Azimuth Distance (km) Brightness Sun altitude
Rises 20:36:18 0° 338° (NNW) 3,406 6.7 -21.8°
Reaches altitude 10° 20:38:46 10° 340° (NNW) 2,470 5.7 -22.0°
Maximum altitude 20:44:26 74° 65° (ENE) 880 2.2 -22.7°
Enters shadow 20:45:50 52° 135° (SE) 1,046 2.2 -22.8°
